1301270429260,118.299
1301270489260,118.826
1301270549260,118.697
1301270609260,118.276
1301270669260,118.018
1301270729260,118.276
1301270789260,118.174
1301270849260,119.048
1301270909260,118.681
1301270969260,118.330
1301271029260,118.344
1301271089260,117.914
1301271149260,119.160
1301271209260,118.835
1301271269260,118.623
1301271329260,118.049
1301271389260,118.857
1301271449260,118.524
1301271509260,118.134
1301271569260,118.540
1301271629260,118.393
1301271689260,118.841
1301271749260,118.545
1301271809260,118.400
1301271869260,118.608
1301271929260,118.313
1301271989260,118.617
1301272049260,118.505
1301272109260,118.959
1301272169260,118.237
1301272229260,119.080
1301272289260,118.068
1301272349260,119.220
1301272409260,118.703
1301272469260,118.514
1301272529260,118.445
1301272589260,119.380
1301272649260,118.918
1301272709260,118.515
1301272769260,118.524
1301272829260,118.408
1301272889260,118.520
1301272949260,118.419
1301273009260,118.663
1301273069260,118.654
1301273129260,118.725
1301273189260,118.734
1301273249260,118.673
1301273309260,119.169
1301273369260,118.780
1301273429260,119.509
1301273489260,118.496
1301273549260,118.706
1301273609260,119.194
1301273669260,118.598
1301273729260,119.174
1301273789260,118.735
1301273849260,118.550
1301273909260,118.790
1301273969260,119.329
1301274029272,118.467
1301274089272,118.989
1301274149272,118.246
1301274209272,118.885
1301274269272,118.763
1301274329272,118.578
1301274389272,119.300
1301274449272,118.868
1301274509272,118.642
1301274569272,119.230
1301274629272,118.649
1301274689272,119.084
1301274749272,119.282
1301274809272,119.290
1301274869272,118.968
1301274929272,118.928
1301274989272,118.844
1301275049272,118.961
1301275109272,119.129
1301275169272,118.775
1301275229272,118.792
1301275289272,119.156
1301275349272,119.142
1301275409272,118.579
1301275469272,118.585
1301275529272,118.641
1301275589272,118.802
1301275649272,118.670
1301275709272,119.317
1301275769272,119.089
1301275829272,119.001
1301275889272,119.227
1301275949272,119.557
1301276009272,118.852
1301276069272,118.730
1301276129272,118.905
1301276189272,118.941
1301276249272,118.717
1301276309272,118.780
1301276369272,118.779
1301276429272,118.713
1301276489272,118.436
1301276549272,118.714
1301276609272,118.951
1301276669272,119.244
1301276729272,119.007
1301276789272,118.708
1301276849272,119.206
1301276909272,118.137
1301276969272,118.915
1301277029272,119.199
1301277089272,119.233
1301277149272,118.845
1301277209272,118.935
1301277269272,118.604
1301277329272,118.882
1301277389272,118.888
1301277449272,118.651
1301277509272,119.140
1301277569272,119.114
1301277629284,118.298
1301277689284,119.031
1301277749284,119.072
1301277809284,118.745
1301277869284,118.960
1301277929284,118.614
1301277989284,118.605
1301278049284,118.524
1301278109284,119.332
1301278169284,119.159
1301278229284,118.593
1301278289284,118.882
1301278349284,118.542
1301278409284,118.837
1301278469284,118.666
1301278529284,118.723
1301278589284,118.420
1301278649284,118.769
1301278709284,119.331
1301278769284,118.410
1301278829284,118.761
1301278889284,118.803
1301278949284,118.411
1301279009284,118.836
1301279069284,118.893
1301279129284,118.247
1301279189284,118.618
1301279249284,118.379
1301279309284,118.805
1301279369284,118.758
1301279429284,119.027
1301279489284,118.256
1301279549284,119.067
1301279609284,118.208
1301279669284,118.591
1301279729284,118.547
1301279789284,118.382
1301279849284,118.039
1301279909284,118.577
1301279969284,118.216
1301280029284,118.123
1301280089284,118.390
1301280149284,118.269
1301280209284,118.533
1301280269284,118.395
1301280329284,117.996
1301280389284,117.976
1301280449284,118.558
1301280509284,118.094
1301280569284,118.170
1301280629284,118.093
1301280689284,118.792
1301280749284,118.018
1301280809284,118.439
1301280869284,117.742
1301280929284,117.851
1301280989284,118.197
1301281049284,117.681
1301281109284,118.608
1301281169284,117.973
1301281229297,118.056
1301281289297,117.975
1301281349297,118.023
1301281409297,118.533
1301281469297,118.316
1301281529297,118.048
1301281589297,117.776
1301281649297,118.091
1301281709297,118.113
1301281769297,118.394
1301281829297,118.260
1301281889297,118.053
1301281949297,117.993
1301282009297,118.139
1301282069297,118.051
1301282129297,117.346
1301282189297,117.704
1301282249297,117.875
1301282309297,118.338
1301282369297,118.006
1301282429297,118.486
1301282489297,117.938
1301282549297,118.006
1301282609297,117.813
1301282669297,118.322
1301282729297,117.896
1301282789297,118.320
1301282849297,117.805
1301282909297,117.738
1301282969297,118.167
1301283029297,117.792
1301283089297,117.685
1301283149297,117.849
1301283209297,118.192
1301283269297,117.289
1301283329297,117.887
1301283389297,117.756
1301283449297,118.028
1301283509297,118.300
1301283569297,118.457
1301283629297,117.922
1301283689297,118.704
1301283749297,118.066
1301283809297,118.309
1301283869297,117.860
1301283929297,118.399
1301283989297,118.318
1301284049297,117.955
1301284109297,118.564
1301284169297,118.427
1301284229297,118.092
1301284289297,118.387
1301284349297,118.558
1301284409297,118.395
1301284469297,118.794
1301284529297,118.809
1301284589297,118.476
1301284649297,118.278
1301284709297,118.563
1301284769297,118.240
1301284829309,118.648
1301284889309,118.874
1301284949309,118.459
1301285009309,118.709
1301285069309,118.683
1301285129309,118.333
1301285189309,118.528
1301285249309,118.205
1301285309309,118.454
1301285369309,118.356
1301285429309,118.642
1301285489309,118.683
1301285549309,118.172
1301285609309,118.847
1301285669309,118.626
1301285729309,117.718
1301285789309,118.611
1301285849309,118.627
1301285909309,118.544
1301285969309,118.083
1301286029309,118.467
1301286089309,118.962
1301286149309,118.111
1301286209309,117.644
1301286269309,117.903
1301286329309,118.010
1301286389309,118.159
1301286449309,118.820
1301286509309,118.011
1301286569309,118.333
1301286629309,118.445
1301286689309,117.914
1301286749309,118.686
1301286809309,118.377
1301286869309,118.245
1301286929309,118.746
1301286989309,118.137
1301287049309,118.221
1301287109309,117.998
1301287169309,118.172
1301287229309,118.204
1301287289309,118.466
1301287349309,118.109
1301287409309,117.947
1301287469309,117.857
1301287529309,117.957
1301287589309,117.827
1301287649309,117.584
1301287709309,118.110
1301287769309,117.341
1301287829309,117.938
1301287889309,117.673
1301287949309,117.607
1301288009309,117.578
1301288069309,117.491
1301288129309,117.680
1301288189309,118.038
1301288249309,117.338
1301288309309,117.429
1301288369309,117.374
1301288429321,117.645
1301288489321,117.276
1301288549321,117.830
1301288609321,117.535
1301288669321,117.401
1301288729321,117.420
1301288789321,117.642
1301288849321,117.423
1301288909321,117.130
1301288969321,116.993
1301289029321,117.402
1301289089321,117.741
1301289149321,116.782
1301289209321,117.080
1301289269321,116.974
1301289329321,117.213
1301289389321,117.347
1301289449321,116.681
1301289509321,117.211
1301289569321,117.064
1301289629321,116.610
1301289689321,116.992
1301289749321,116.694
1301289809321,117.207
1301289869321,116.761
1301289929321,116.555
1301289989321,116.693
1301290049321,117.706
1301290109321,116.730
1301290169321,117.621
1301290229321,117.504
1301290289321,117.028
1301290349321,117.483
1301290409321,116.943
1301290469321,117.047
1301290529321,117.385
1301290589321,117.265
1301290649321,117.638
1301290709321,117.124
1301290769321,117.671
1301290829321,117.618
1301290889321,117.386
1301290949321,117.682
1301291009321,117.306
1301291069321,117.043
1301291129321,117.255
1301291189321,117.566
1301291249321,117.796
1301291309321,117.699
1301291369321,117.741
1301291429321,117.253
1301291489321,117.249
1301291549321,117.040
1301291609321,117.136
1301291669321,117.585
1301291729321,117.587
1301291789321,117.717
1301291849321,117.562
1301291909321,117.610
1301291969321,117.768
1301292029333,117.767
1301292089333,117.670
1301292149333,117.800
1301292209333,117.161
1301292269333,117.567
1301292329333,117.449
1301292389333,117.595
1301292449333,117.466
1301292509333,117.557
1301292569333,117.414
1301292629333,117.630
1301292689333,117.136
1301292749333,117.252
1301292809333,117.332
1301305529366,117.685
1301305589366,117.538
1301305649366,117.275
1301305709366,117.559
1301305769366,117.343
1301305829366,117.648
1301305889366,117.132
1301305949366,117.970
1301306009366,117.275
1301306069366,117.304
1301306129366,117.806
1301306189366,117.215
1301306249366,117.072
1301306309366,117.600
1301306369366,117.637
1301306429378,117.678
1301306489378,117.483
1301306549378,117.695
1301306609378,117.786
1301306669378,117.547
1301306729378,117.382
1301306789378,117.408
1301306849378,117.375
1301306909378,117.719
1301306969378,117.561
1301307029378,117.190
1301307089378,117.543
1301307149378,117.162
1301307209378,116.962
1301307269378,117.178
1301307329378,116.854
1301307389378,117.916
1301307449378,117.255
1301307509378,117.513
1301307569378,117.298
1301307629378,117.174
1301307689378,117.671
1301307749378,117.336
1301307809378,117.038
1301307869378,117.553
1301307929378,117.065
1301307989378,117.434
1301308049378,117.104
1301308109378,116.805
1301308169378,117.196
1301308229378,117.053
1301308289378,117.095
1301308349378,116.452
1301308409378,116.787
1301308469378,116.627
1301308529378,116.808
1301308589378,116.630
1301308649378,116.607
1301308709378,116.348
1301308769378,116.532
1301308829378,116.368
1301308889378,116.834
1301308949378,117.138
1301309009378,116.573
1301309069378,117.350
1301309129378,116.873
1301309189378,116.808
1301309249378,116.932
1301309309378,116.606
1301309369378,116.430
1301309429378,116.976
1301309489378,116.172
1301309549378,116.318
1301309609378,116.381
1301309669378,116.777
1301309729378,116.322
1301309789378,116.219
1301309849378,116.496
1301309909378,116.033
1301309969378,116.224
1301310029390,116.733
1301310089390,116.212
1301310149390,116.159
1301310209390,115.609
1301310269390,116.778
1301310329390,115.794
1301310389390,116.038
1301310449390,116.887
1301310509390,116.277
1301310569390,115.825
1301310629390,116.424
1301310689390,115.929
1301310749390,115.971
1301310809390,116.354
1301310869390,116.262
1301310929390,116.335
1301310989390,116.200
1301311049390,116.335
1301311109390,116.067
1301311169390,116.516
1301311229390,116.020
1301311289390,115.810
1301311349390,116.564
1301311409390,115.771
1301311469390,116.484
1301311529390,116.167
1301311589390,115.862
1301311649390,116.039
1301311709390,115.724
1301311769390,116.484
1301311829390,116.429
1301311889390,116.045
1301311949390,116.411
1301312009390,116.109
1301312069390,116.095
1301312129390,116.352
1301312189390,116.236
1301312249390,116.334
1301312309390,117.091
1301312369390,116.643
1301312429390,116.757
1301312489390,116.807
1301312549390,117.077
1301312609390,117.152
1301312669390,116.749
1301312729390,117.137
1301312789390,117.012
1301312849390,116.536
1301312909390,116.647
1301312969390,116.272
1301313029390,116.706
1301313089390,116.520
1301313149390,116.855
1301313209390,116.552
1301313269390,116.831
1301313329390,116.593
1301313389390,116.490
1301313449390,115.963
1301313509390,116.261
1301313569390,116.647
1301313629402,116.093
1301313689402,115.769
1301313749402,115.890
1301313809402,116.508
1301313869402,116.292
1301313929402,115.585
1301313989402,116.425
1301314049402,115.924
1301314109402,115.981
1301314169402,116.475
1301314229402,115.670
1301314289402,116.207
1301314349402,116.688
1301314409402,116.244
1301314469402,115.922
1301314529402,116.053
1301314589402,115.959
1301314649402,116.229
1301314709402,115.913
1301314769402,115.953
1301314829402,116.466
1301314889402,115.973
1301314949402,115.850
1301315009402,116.270
1301315069402,116.673
1301315129402,115.532
1301315189402,116.703
1301315249402,116.013
1301315309402,116.235
1301315369402,115.953
1301315429402,116.093
1301315489402,115.716
1301315549402,115.995
1301315609402,116.096
1301315669402,116.083
1301315729402,115.384
1301315789402,115.991
1301315849402,115.521
1301315909402,116.135
1301315969402,115.391
1301316029402,115.964
1301316089402,115.996
1301316149402,115.599
1301316209402,116.107
1301316269402,115.299
1301316329402,115.772
1301316389402,115.565
1301316449402,116.223
1301316509402,116.025
1301316569402,115.850
1301316629402,115.322
1301316689402,115.658
1301316749402,115.812
1301316809402,115.276
1301316869402,115.291
1301316929402,115.643
1301316989402,115.797
1301317049402,116.117
1301317109402,116.262
1301317169402,115.409
1301317229414,115.693
1301317289414,115.600
1301317349414,115.425
1301317409414,115.326
1301317469414,116.053
1301317529414,115.868
1301317589414,115.496
1301317649414,115.934
1301317709414,115.816
1301317769414,115.767
1301317829414,115.275
1301317889414,115.185
1301318429414,115.364
1301318489414,115.529
1301318549414,115.179
1301318609414,115.282
1301318669414,115.827
1301318729414,116.437
1301318789414,115.774
1301318849414,115.596
1301318909414,115.619
1301318969414,116.073
1301319029414,115.761
1301319089414,116.064
1301319149414,115.734
1301319209414,116.236
1301319269414,115.960
1301319329414,116.134
1301319389414,116.176
1301319449414,116.044
1301319509414,116.099
1301319569414,115.807
1301319629414,115.664
1301319689414,115.843
1301319749414,116.084
1301319809414,115.806
1301319869414,116.198
1301319929414,115.873
1301319989414,115.917
1301320049414,115.776
1301320109414,116.066
1301320169414,116.048
1301320229414,115.954
1301320289414,115.671
1301320349414,116.024
1301320409414,115.800
1301320469414,115.435
1301320529414,116.132
1301320589414,116.113
1301320649414,115.928
1301320709414,115.953
1301320769414,115.886
1301320829425,115.834
1301320889425,115.754
1301320949425,116.115
1301321009425,115.709
1301321069425,116.194
1301321129425,115.373
1301321189425,115.974
1301321249425,116.323
1301321309425,116.090
1301321369425,115.788
1301321429425,115.966
1301321489425,116.065
1301321549425,116.043
1301321609425,115.757
1301321669425,116.099
1301321729425,115.371
1301321789425,115.786
1301321849425,115.735
1301321909425,115.655
1301321969425,115.820
1301322029425,115.591
1301322089425,116.360
1301322149425,115.664
1301322209425,115.960
1301322269426,115.781
1301322329425,116.147
1301322389425,115.993
1301322449425,116.109
1301322509425,115.751
1301322569425,116.140
1301322629425,115.655
1301322689425,116.244
1301322749425,116.136
1301322809425,116.053
1301322869425,115.390
1301322929425,115.879
1301322989425,116.381
1301323049425,115.896
1301323109425,116.355
1301323169425,115.751
1301323229425,115.774
1301323289425,115.535
1301323349425,115.940
1301323409425,115.967
1301323469425,115.590
1301323529425,116.000
1301323589425,115.602
1301323649425,115.781
1301323709425,115.571
1301323769425,115.968
1301323829425,116.086
1301323889425,115.445
1301323949425,115.811
1301324009425,115.657
1301324069425,116.014
1301324129425,115.888
1301324189425,115.673
1301324249425,115.795
1301324309425,115.520
1301324369425,115.702
1301324429437,116.365
1301324489437,115.610
1301324549437,115.418
1301324609437,115.693
1301324669437,115.378
1301324729437,116.128
1301324789437,115.000
1301324849437,115.296
1301324909437,115.332
1301324969437,115.756
1301325029437,115.263
1301325089437,115.548
1301325149437,115.465
1301325209437,115.901
1301325269437,116.096
1301325329437,115.920
1301325389437,115.537
1301325449437,116.161
1301325509437,116.121
1301325569437,115.519
1301325629437,115.901
1301325689437,116.337
1301325749437,115.726
1301325809437,115.007
1301325869437,115.914
1301325929437,115.236
1301325989437,115.654
1301326049437,115.790
1301326109437,116.053
1301326169437,115.734
1301326229437,115.840
1301326289437,115.358
1301326349437,115.988
1301326409437,115.643
1301326469437,115.272
1301326529437,115.549
1301326589437,115.144
1301326649437,115.581
1301326709437,115.948
1301326769437,115.575
1301326829437,116.347
1301326889437,115.640
1301326949437,115.347
1301327009437,115.564
1301327069437,114.984
1301327129437,115.881
1301327189437,115.491
1301327249437,115.905
1301327309437,115.850
1301327369437,114.948
1301327429437,115.079
1301327489437,115.356
1301327549437,115.422
1301327609437,115.211
1301327669437,115.092
1301327729437,115.599
1301327789437,115.219
1301327849437,115.353
1301327909437,114.953
1301327969437,114.725
1301328029449,114.789
1301328089449,114.899
1301328149449,114.508
1301328209449,115.086
1301328269449,114.984
1301328329449,115.149
1301328389449,114.627
1301328449449,114.978
1301328509449,114.795
1301328569449,114.287
1301328629449,114.627
1301328689449,114.625
1301328749449,114.886
1301328809449,114.345
1301328869449,114.690
1301328929449,114.389
1301328989449,114.343
1301329049449,114.616
1301329109449,114.811
1301329169449,114.488
1301329229449,114.462
1301329289449,114.643
1301329349449,114.391
1301329409449,114.600
1301329469449,114.796
1301329529449,114.465
1301329589449,113.873
1301329649449,114.367
1301329709449,114.451
1301329769449,114.254
1301329829449,114.625
1301329889449,113.924
1301329949449,114.308
1301330009449,114.661
1301330069449,114.124
1301330129449,114.255
1301330189449,114.471
1301330249449,114.435
1301330309449,115.006
1301330369449,114.678
1301330429449,114.176
1301330489449,113.930
1301330549449,114.410
1301330609449,114.154
1301330669449,114.948
1301330729449,114.432
1301330789449,114.881
1301330849449,115.002
1301330909449,114.338
1301330969449,114.522
1301331029449,114.456
1301331089449,114.181
1301331149449,114.400
1301331209449,114.852
1301331269449,114.657
1301331329449,114.818
1301331389449,114.615
1301331449449,114.805
1301331509449,114.428
1301331569449,114.935
1301331629460,114.672
1301331689460,114.488
1301331749460,114.771
1301331809460,114.929
1301331869460,114.188
1301331929460,114.710
1301331989460,114.860
1301332049460,115.628
1301332109460,114.682
1301332169460,114.318
1301332229460,115.000
1301332289460,114.248
1301332349460,114.813
1301332409460,114.332
1301332469460,114.287
1301332529460,114.126
1301332589460,116.757
1301332649460,114.105
1301332709460,114.549
1301332769460,114.873
1301332829460,114.617
1301332889460,113.939
1301332949460,114.358
1301333009460,114.316
1301333069460,114.472
1301333129460,114.399
1301333189460,113.952
1301333249460,114.709
1301333309460,114.168
1301333369460,115.174
1301333429460,114.920
1301333489460,114.600
1301333549460,114.604
1301333609460,114.330
1301333669460,114.593
1301333729460,114.008
1301333789460,114.178
1301333849460,114.453
1301333909460,115.156
1301333969460,115.349
1301334029460,114.845
1301334089460,114.251
1301334149460,114.554
1301334209460,114.979
1301334269460,114.797
1301334329460,114.795
1301334389460,115.387
1301334449460,114.671
1301334509460,114.314
1301334569460,115.163
1301334629460,114.245
1301334689460,114.627
1301334749460,114.336
1301334809460,114.877
1301334869460,114.238
1301334929460,115.005
1301334989460,114.520
1301335049460,114.518
1301335109460,114.859
1301335169460,114.185
1301335229472,114.984
1301335289472,114.786
1301335349472,115.363
1301335409472,114.967
1301335469472,114.926
1301335529472,115.268
1301335589472,115.263
1301335649472,114.961
1301335709472,114.380
1301335769472,114.829
1301335829472,114.445
1301335889472,114.687
1301335949472,115.081
1301336009472,114.921
1301336069472,115.129
1301336129472,115.057
1301336189472,115.104
1301336249472,114.736
1301336309472,114.601
1301336369472,114.512
1301336429472,114.948
1301336489472,114.794
1301336549472,114.734
1301336609472,115.186
1301336669472,114.496
1301336729472,114.859
1301336789472,114.949
1301336849472,114.959
1301336909472,114.939
1301336969472,114.961
1301337029472,115.226
1301337089472,114.361
1301337149472,114.808
1301337209472,115.113
1301337269472,114.697
1301337329472,114.824
1301337389472,114.560
1301337449472,115.054
1301337509472,114.830
1301337569472,114.992
1301337629472,114.722
1301337689472,114.634
1301337749472,114.347
1301337809472,114.440
1301337869472,114.402
1301337929472,114.999
1301337989472,114.204
1301338049472,114.263
1301338109472,114.499
1301338169472,114.358
1301338229472,114.223
1301338289472,114.945
1301338349472,114.282
1301338409472,114.628
1301338469472,114.802
1301338529472,114.758
1301338589472,114.816
1301338649472,113.942
1301338709472,114.594
1301338769472,114.448
1301338829483,114.326
1301338889483,114.685
1301338949483,114.739
1301339009483,113.897
1301339069483,114.324
1301339129483,114.450
1301339189483,114.414
1301339249483,114.317
1301339309483,115.156
1301339369483,114.406
1301339429483,114.687
1301339489483,114.317
1301339549483,114.090
1301339609483,114.546
1301339669483,114.348
1301339729483,114.700
1301339789483,114.422
1301339849483,114.293
1301339909483,114.770
1301339969483,114.070
1301340029483,114.596
1301340089483,114.000
1301340149483,114.209
1301340209483,114.873
1301340269483,114.741
1301340329483,114.435
1301340389483,114.691
1301340449483,114.524
1301340509483,114.355
1301340569483,113.908
1301340629483,114.517
1301340689483,113.859
1301340749483,113.762
1301340809483,114.391
1301340869483,114.449
1301340929483,114.293
1301340989483,114.284
1301341049483,114.108
1301341109483,114.198
1301341169483,113.901
1301341229483,114.039
1301341289483,114.041
1301341349483,114.521
1301341409483,114.590
1301341469483,114.980
1301341529483,114.524
1301341589483,113.951
1301341649483,114.874
1301341709483,114.226
1301341769483,114.169
1301341829483,114.270
1301341889483,114.228
1301341949483,113.729
1301342009483,114.126
1301342069483,114.209
1301342129483,114.341
1301342189483,114.790
1301342249483,114.135
1301342309483,114.234
1301342369483,114.463
1301342429495,114.495
1301342489495,114.343
1301342549495,113.865
1301342609495,114.273
1301342669495,114.089
1301342729495,114.490
1301342789495,115.011
1301342849495,114.650
1301342909495,114.353
1301342969495,114.076
1301343029495,114.756
1301343089495,115.111
1301343149495,114.334
1301343209495,113.988
1301343269495,114.090
1301343329495,113.828
1301343389495,113.977
1301343449495,114.722
1301343509495,113.990
1301343569495,114.203
1301343629495,114.501
1301343689495,114.398
1301343749495,114.312
1301343809495,114.113
1301343869495,114.325
1301343929495,114.527
1301343989495,114.254
1301344049495,114.457
1301344109495,114.467
1301344169495,114.435
1301344229495,114.336
1301344289495,114.319
1301344349495,114.566
1301344409495,114.966
1301344469495,114.205
1301344529495,114.398
1301344589495,115.033
1301344649495,114.328
1301344709495,114.507
1301344769495,114.197
1301344829495,114.619
1301344889495,114.819
1301344949495,114.442
1301345009495,114.675
1301345069495,114.316
1301345129495,115.030
1301345189495,114.354
1301345249495,114.320
1301345309495,114.130
1301345369495,114.592
1301345429495,114.507
1301345489495,114.644
1301345549495,114.754
1301345609495,114.334
1301345669495,114.382
1301345729495,114.464
1301345789495,113.957
1301345849495,114.619
1301345909495,114.104
1301345969495,114.297
1301346029506,114.005
1301346089506,113.983
1301346149506,114.500
1301346209506,114.543
1301346269506,114.488
1301346329506,114.602
1301346389506,114.282
1301346449506,113.773
1301346509506,113.925
1301346569506,114.313
1301346629506,114.040
1301346689506,114.669
1301346749506,114.764
1301346809506,114.103
1301346869506,114.196
1301346929506,114.477
1301346989506,114.319
1301347049506,114.399
1301347109506,114.393
1301347169506,114.067
1301347229506,114.690
1301347289506,113.987
1301347349506,114.195
1301347409506,113.773
1301347469506,114.108
1301347529506,114.624
1301347589506,114.427
1301347649506,114.804
1301347709506,114.454
1301347769506,114.765
1301347829506,113.814
1301347889506,114.285
1301347949506,114.161
1301348009506,114.050
1301348069506,113.801
1301348129506,113.994
1301348189506,113.897
1301348249506,114.646
1301348309506,114.130
1301348369506,113.811
1301348429506,113.964
1301348489506,114.227
1301348549506,114.414
1301348609506,113.957
1301348669506,114.011
1301348729506,114.723
1301348789506,113.917
1301348849506,113.518
1301348909506,114.484